Location: Rounton
(54.4000°N, 1.3500°W)
Time: 19:21:11
(UTC+00:00)

Altair - Pass Details

Date: 03 December 2021
Orbit: 1501 x 1683 km, 47.2° (Epoch: 16 January)

Event Time Altitude Azimuth Distance (km) Brightness Sun altitude
Rises 19:50:21 0° 271° (W) 4,699 11.1 -34.5°
Reaches altitude 10° 19:53:31 10° 267° (W) 3,696 10.2 -35.0°
Maximum altitude 20:02:20 51° 195° (SSW) 1,834 7.7 -36.2°
Enters shadow 20:02:29 51° 192° (SSW) 1,835 7.7 -36.2°
Drops below altitude 10° 20:11:02 10° 123° (ESE) 3,652 - -37.4°
Sets 20:14:08 0° 119° (ESE) 4,638 - -37.9°
